Météo par heure à Jurgi

Ce jour, 16 Juin, Mercredi

Heure Température Précipitation Vent Pression Humidité
00:00 +9°C° 0 mm 2 m/s 751 mmHg 89%
01:00 +8°C° 0 mm 2 m/s 751 mmHg 91%
02:00 +8°C° 0 mm 2 m/s 751 mmHg 91%
03:00 +8°C° 0 mm 2 m/s 751 mmHg 92%
04:00 +9°C° 0 mm 1 m/s 751 mmHg 92%
05:00 +11°C° 0 mm 1 m/s 751 mmHg 82%
06:00 +13°C° 0 mm 2 m/s 751 mmHg 73%
07:00 +16°C° 0 mm 2 m/s 752 mmHg 63%
08:00 +18°C° 0 mm 1 m/s 752 mmHg 57%
09:00 +20°C° 0 mm 1 m/s 752 mmHg 50%
10:00 +22°C° 0 mm 1 m/s 752 mmHg 44%
11:00 +21°C° 0 mm 2 m/s 752 mmHg 42%
12:00 +23°C° 0 mm 2 m/s 752 mmHg 40%
13:00 +24°C° 0 mm 2 m/s 752 mmHg 39%
14:00 +24°C° 0 mm 2 m/s 751 mmHg 40%
15:00 +24°C° 0 mm 2 m/s 751 mmHg 42%
16:00 +23°C° 0 mm 2 m/s 751 mmHg 43%
17:00 +21°C° 0 mm 2 m/s 751 mmHg 52%
18:00 +20°C° 0 mm 2 m/s 751 mmHg 61%
19:00 +18°C° 0 mm 2 m/s 752 mmHg 69%
20:00 +16°C° 0 mm 2 m/s 752 mmHg 74%
21:00 +15°C° 0 mm 2 m/s 752 mmHg 79%
22:00 +13°C° 0 mm 2 m/s 752 mmHg 84%
23:00 +13°C° 0 mm 2 m/s 752 mmHg 86%

Demain, 17 Juin, Jeudi

Heure Température Précipitation Vent Pression Humidité
00:00 +12°C° 0 mm 2 m/s 753 mmHg 87%
01:00 +12°C° 0 mm 2 m/s 753 mmHg 89%
02:00 +12°C° 0 mm 2 m/s 753 mmHg 89%
03:00 +12°C° 0 mm 2 m/s 753 mmHg 89%
04:00 +12°C° 0 mm 2 m/s 753 mmHg 88%
05:00 +14°C° 0 mm 2 m/s 753 mmHg 80%
06:00 +16°C° 0 mm 2 m/s 753 mmHg 72%
07:00 +19°C° 0 mm 2 m/s 753 mmHg 64%
08:00 +20°C° 0 mm 3 m/s 753 mmHg 58%
09:00 +22°C° 0 mm 3 m/s 754 mmHg 52%
10:00 +23°C° 0 mm 4 m/s 754 mmHg 47%
11:00 +25°C° 0 mm 4 m/s 754 mmHg 45%
12:00 +26°C° 0 mm 4 m/s 753 mmHg 43%
13:00 +27°C° 0 mm 4 m/s 753 mmHg 41%
14:00 +27°C° 0 mm 4 m/s 753 mmHg 42%
15:00 +27°C° 0 mm 3 m/s 753 mmHg 42%
16:00 +27°C° 0 mm 3 m/s 753 mmHg 43%
17:00 +25°C° 0 mm 3 m/s 753 mmHg 52%
18:00 +22°C° 0 mm 3 m/s 753 mmHg 60%
19:00 +21°C° 0 mm 2 m/s 753 mmHg 69%
20:00 +19°C° 0 mm 2 m/s 753 mmHg 72%
21:00 +18°C° 0 mm 2 m/s 753 mmHg 76%
22:00 +16°C° 0 mm 2 m/s 753 mmHg 80%
23:00 +16°C° 0 mm 2 m/s 753 mmHg 83%

Après-demain, 18 Juin, Vendredi

Heure Température Précipitation Vent Pression Humidité
00:00 +15°C° 0 mm 2 m/s 753 mmHg 86%
01:00 +15°C° 0 mm 2 m/s 753 mmHg 89%
02:00 +15°C° 0 mm 2 m/s 753 mmHg 91%
03:00 +15°C° 0 mm 2 m/s 753 mmHg 92%
04:00 +15°C° 0 mm 2 m/s 753 mmHg 93%
05:00 +17°C° 0 mm 3 m/s 753 mmHg 85%
06:00 +19°C° 0 mm 3 m/s 753 mmHg 77%
07:00 +22°C° 0 mm 3 m/s 753 mmHg 70%
08:00 +24°C° 0 mm 3 m/s 753 mmHg 64%
09:00 +26°C° 0 mm 4 m/s 753 mmHg 59%
10:00 +28°C° 0 mm 4 m/s 753 mmHg 54%
11:00 +28°C° 0 mm 4 m/s 753 mmHg 52%
12:00 +29°C° 0 mm 4 m/s 752 mmHg 49%
13:00 +30°C° 0 mm 5 m/s 752 mmHg 47%
14:00 +30°C° 0 mm 5 m/s 752 mmHg 47%
15:00 +30°C° 0 mm 5 m/s 752 mmHg 48%
16:00 +30°C° 0 mm 4 m/s 751 mmHg 49%
17:00 +28°C° 0 mm 4 m/s 751 mmHg 56%
18:00 +27°C° 0 mm 4 m/s 751 mmHg 63%
19:00 +25°C° 0 mm 3 m/s 751 mmHg 70%
20:00 +24°C° 0 mm 3 m/s 751 mmHg 75%
21:00 +21°C° 0 mm 3 m/s 752 mmHg 80%
22:00 +20°C° 0 mm 3 m/s 752 mmHg 85%
23:00 +19°C° 0 mm 3 m/s 752 mmHg 87%

19 Juin, Samedi

Heure Température Précipitation Vent Pression Humidité
00:00 +18°C° 0 mm 3 m/s 752 mmHg 89%
01:00 +18°C° 0 mm 2 m/s 752 mmHg 91%
02:00 +17°C° 0 mm 2 m/s 752 mmHg 92%
03:00 +17°C° 0 mm 2 m/s 752 mmHg 93%
04:00 +17°C° 0 mm 2 m/s 752 mmHg 94%
05:00 +19°C° 0 mm 3 m/s 752 mmHg 86%
06:00 +21°C° 0 mm 3 m/s 752 mmHg 78%
07:00 +23°C° 0 mm 4 m/s 752 mmHg 69%
08:00 +26°C° 0 mm 4 m/s 751 mmHg 65%
09:00 +27°C° 0 mm 4 m/s 751 mmHg 60%
10:00 +28°C° 0 mm 5 m/s 751 mmHg 56%
11:00 +29°C° 0 mm 5 m/s 751 mmHg 53%
12:00 +30°C° 0 mm 5 m/s 751 mmHg 50%
13:00 +32°C° 0 mm 5 m/s 750 mmHg 47%
14:00 +32°C° 0 mm 4 m/s 750 mmHg 48%
15:00 +32°C° 0 mm 4 m/s 750 mmHg 48%
16:00 +32°C° 0 mm 4 m/s 750 mmHg 49%
17:00 +29°C° 0 mm 4 m/s 750 mmHg 56%
18:00 +28°C° 0 mm 3 m/s 749 mmHg 63%
19:00 +27°C° 0 mm 3 m/s 749 mmHg 70%
20:00 +25°C° 0 mm 3 m/s 749 mmHg 76%
21:00 +24°C° 0 mm 3 m/s 749 mmHg 81%
22:00 +21°C° 0 mm 3 m/s 749 mmHg 87%
23:00 +21°C° 0 mm 3 m/s 749 mmHg 88%

20 Juin, Dimanche

Heure Température Précipitation Vent Pression Humidité
00:00 +20°C° 0 mm 3 m/s 750 mmHg 89%
01:00 +20°C° 0 mm 3 m/s 750 mmHg 91%
02:00 +20°C° 0 mm 3 m/s 750 mmHg 91%
03:00 +19°C° 0 mm 3 m/s 749 mmHg 92%
04:00 +19°C° 0 mm 3 m/s 749 mmHg 93%
05:00 +21°C° 0 mm 3 m/s 749 mmHg 84%
06:00 +22°C° 0 mm 3 m/s 749 mmHg 76%
07:00 +25°C° 0 mm 4 m/s 750 mmHg 67%
08:00 +26°C° 0 mm 4 m/s 749 mmHg 62%
09:00 +27°C° 0 mm 4 m/s 749 mmHg 57%
10:00 +28°C° 0 mm 4 m/s 749 mmHg 51%
11:00 +29°C° 0 mm 4 m/s 749 mmHg 49%
12:00 +30°C° 0 mm 4 m/s 749 mmHg 48%
13:00 +30°C° 0 mm 4 m/s 749 mmHg 46%
14:00 +30°C° 0 mm 4 m/s 749 mmHg 46%
15:00 +30°C° 0 mm 3 m/s 748 mmHg 46%
16:00 +30°C° 0 mm 3 m/s 748 mmHg 46%
17:00 +29°C° 0 mm 3 m/s 748 mmHg 53%
18:00 +27°C° 0 mm 3 m/s 748 mmHg 61%
19:00 +26°C° 0 mm 3 m/s 748 mmHg 69%
20:00 +24°C° 0 mm 2 m/s 748 mmHg 72%
21:00 +23°C° 0 mm 2 m/s 748 mmHg 76%
22:00 +21°C° 0 mm 2 m/s 748 mmHg 80%
23:00 +20°C° 0 mm 2 m/s 748 mmHg 82%

21 Juin, Lundi

Heure Température Précipitation Vent Pression Humidité
00:00 +20°C° 0 mm 2 m/s 748 mmHg 84%
01:00 +19°C° 0 mm 2 m/s 748 mmHg 86%
02:00 +19°C° 0 mm 2 m/s 748 mmHg 86%
03:00 +19°C° 0 mm 2 m/s 748 mmHg 87%
04:00 +19°C° 0 mm 2 m/s 748 mmHg 88%
05:00 +21°C° 0 mm 3 m/s 748 mmHg 82%
06:00 +24°C° 0 mm 3 m/s 748 mmHg 75%
07:00 +25°C° 0 mm 4 m/s 748 mmHg 69%
08:00 +27°C° 0 mm 4 m/s 748 mmHg 64%
09:00 +28°C° 0 mm 5 m/s 748 mmHg 59%
10:00 +29°C° 0 mm 5 m/s 747 mmHg 54%
11:00 +30°C° 0 mm 5 m/s 747 mmHg 51%
12:00 +32°C° 0 mm 5 m/s 747 mmHg 48%
13:00 +32°C° 0 mm 5 m/s 747 mmHg 45%
14:00 +32°C° 0 mm 5 m/s 747 mmHg 46%
15:00 +32°C° 0 mm 5 m/s 747 mmHg 46%
16:00 +32°C° 0 mm 4 m/s 746 mmHg 47%
17:00 +30°C° 0 mm 4 m/s 746 mmHg 53%
18:00 +28°C° 0 mm 3 m/s 746 mmHg 60%
19:00 +27°C° 0 mm 3 m/s 746 mmHg 66%
20:00 +25°C° 0 mm 3 m/s 746 mmHg 71%
21:00 +24°C° 0 mm 3 m/s 746 mmHg 76%
22:00 +21°C° 0 mm 2 m/s 746 mmHg 81%
23:00 +21°C° 0 mm 2 m/s 746 mmHg 83%
Voir plus

Nous avons besoin de votre consentement

Meteoprog et ses fournisseurs de services peuvent stocker et accéder à des données personnelles telles que des cookies, des identifiants d'appareils ou d'autres technologies similaires sur votre appareil et traiter ces données pour personnaliser le contenu et les publicités, ainsi que pour fournir des fonctionnalités de médias sociaux et analyser le trafic.

  • Stocker et/ou accéder à des informations sur votre appareil

    Des cookies, des identifiants d'appareils ou d'autres informations peuvent être stockés ou accessibles sur votre appareil aux fins indiquées ci-dessus.

  • Annonces et contenus personnalisés, mesure des annonces et des contenus, connaissance de l'audience et développement de produits

    Les annonces et le contenu peuvent être personnalisés en fonction d'un profil. D'autres données peuvent être ajoutées pour mieux personnaliser les annonces et le contenu. Les performances des publicités et du contenu peuvent être mesurées. Il est possible d'obtenir des informations sur le public qui a vu les publicités et le contenu. Ces données peuvent être utilisées pour développer ou améliorer l'expérience de l'utilisateur, les systèmes et les logiciels.

En cliquant sur "J'accepte", vous autorisez l'utilisation de cookies, des identifiants d'appareils, des balises web ou d'autres technologies similaires. Vos paramètres peuvent être modifiés dans le navigateur de votre appareil.

Dans certains cas, des intérêts légitimes peuvent être invoqués plutôt qu'un consentement. Vous pouvez en savoir plus à ce sujet dans notre Politique de confidentialité et de cookies.